Simultaneous Nadir Overpasses (SNOs) Predictions

Prediction of SNOs between FY3D and AQUA Satellite Orbit:

Table of predicted SNOs for the next 14.0 days since TLE Epoch: 5/18/2024
Index Date (FY3D) Time (FY3D) Lat,Lon (FY3D) SZA (FY3D ) Date (AQUA) Time (AQUA) Lat,Lon (AQUA) SZA (AQUA ) Distance(km) Time Diff (sec)
1 05/20/2024 06:23:05 79.37, 65.40 59.78 05/20/2024 06:23:15 79.37, 65.46 59.77 1.35 10
2 05/20/2024 07:13:43 -79.13,-125.37 120.57 05/20/2024 07:12:30 -79.12,-125.24 120.57 2.95 73
3 05/22/2024 18:26:44 -79.31, 65.02 120.80 05/22/2024 18:27:05 -79.32, 64.87 120.79 3.11 21
4 05/22/2024 19:17:23 79.10,-125.99 58.89 05/22/2024 19:16:22 79.10,-126.03 58.91 0.84 61
5 05/25/2024 06:30:26 79.39, 63.46 58.86 05/25/2024 06:30:56 79.40, 63.41 58.86 1.14 30
6 05/25/2024 07:21:04 -79.15,-127.24 121.50 05/25/2024 07:20:11 -79.15,-127.27 121.48 0.59 53
7 05/27/2024 18:34:06 -79.38, 62.69 121.58 05/27/2024 18:34:42 -79.39, 62.58 121.57 2.22 36
8 05/27/2024 19:24:45 79.18,-128.36 58.13 05/27/2024 19:23:59 79.18,-128.36 58.14 0.19 46
9 05/30/2024 06:37:46 79.40, 61.70 58.07 05/30/2024 06:38:27 79.40, 61.59 58.07 2.27 41



Historial Predications of SNOs between FY3D and AQUA
